RYR861E EPKK-LKPR

Flight info

Callsign RYR861E
Flight time 0h 45m
Altitude 32000
Route TUSIN DCT LABUK DCT TUMKA DCT VLM
Aircraft B38M/M-SADE3FGIJ1LRWY/SB1

Departure

Time 2026-05-07 08:21
Airport Kraków John Paul II International Airport (EPKK)

Arrival

Time 2026-05-07 09:06
Airport Václav Havel Airport Prague (LKPR)
Time Latitude Longitude Altitude Speed Heading
2026-05-07 07:45 50.07447 19.79687 802 ft 0 kts 258°
2026-05-07 08:10 50.07448 19.79691 802 ft 2 kts 258°
2026-05-07 08:10 50.07452 19.79725 802 ft 2 kts 258°
2026-05-07 08:11 50.07453 19.79757 802 ft 4 kts 310°
2026-05-07 08:11 50.07433 19.79770 802 ft 4 kts 348°
2026-05-07 08:11 50.07416 19.79776 802 ft 0 kts 348°
2026-05-07 08:17 50.07421 19.79774 802 ft 3 kts 348°
2026-05-07 08:17 50.07471 19.79758 802 ft 13 kts 348°
2026-05-07 08:18 50.07575 19.79723 802 ft 17 kts 347°
2026-05-07 08:18 50.07682 19.79701 802 ft 10 kts 22°
2026-05-07 08:18 50.07699 19.79756 802 ft 6 kts 84°
2026-05-07 08:18 50.07710 19.79853 802 ft 13 kts 79°
2026-05-07 08:19 50.07736 19.80038 802 ft 22 kts 77°
2026-05-07 08:19 50.07769 19.80279 802 ft 14 kts 78°
2026-05-07 08:19 50.07839 19.80338 803 ft 13 kts 348°
2026-05-07 08:19 50.07937 19.80304 802 ft 16 kts 347°
2026-05-07 08:20 50.08017 19.80254 802 ft 5 kts 283°
2026-05-07 08:20 50.08011 19.80193 803 ft 9 kts 258°
2026-05-07 08:20 50.07961 19.79829 802 ft 70 kts 258°
2026-05-07 08:20 50.07807 19.78728 804 ft 135 kts 258°
2026-05-07 08:21 50.07597 19.77166 1170 ft 156 kts 261°
2026-05-07 08:21 50.07372 19.75427 1797 ft 169 kts 259°
2026-05-07 08:21 50.07127 19.73668 2682 ft 166 kts 257°
2026-05-07 08:21 50.06861 19.71825 3211 ft 187 kts 258°
2026-05-07 08:22 50.06553 19.69700 3642 ft 215 kts 257°
2026-05-07 08:22 50.06122 19.67344 4243 ft 236 kts 253°
2026-05-07 08:22 50.05633 19.64805 4904 ft 251 kts 253°
2026-05-07 08:22 50.05137 19.62211 5932 ft 250 kts 253°
2026-05-07 08:23 50.04637 19.59584 6757 ft 256 kts 253°
2026-05-07 08:23 50.04130 19.56911 7657 ft 258 kts 252°
2026-05-07 08:23 50.03624 19.54248 8514 ft 262 kts 252°
2026-05-07 08:23 50.03103 19.51507 9366 ft 266 kts 252°
2026-05-07 08:24 50.02572 19.48715 10185 ft 271 kts 252°
2026-05-07 08:24 50.02019 19.45812 10620 ft 289 kts 252°
2026-05-07 08:24 50.01433 19.42737 11094 ft 303 kts 252°
2026-05-07 08:24 50.00824 19.39552 11764 ft 308 kts 252°
2026-05-07 08:25 50.00209 19.36342 12514 ft 312 kts 252°
2026-05-07 08:25 49.99591 19.33116 13209 ft 316 kts 252°
2026-05-07 08:25 49.98958 19.29822 13882 ft 320 kts 252°
2026-05-07 08:25 49.98316 19.26481 14520 ft 323 kts 252°
2026-05-07 08:26 49.97018 19.19750 15879 ft 327 kts 251°
2026-05-07 08:26 49.96362 19.16361 16591 ft 329 kts 251°
2026-05-07 08:26 49.95700 19.12943 17256 ft 331 kts 251°
2026-05-07 08:27 49.95032 19.09504 17882 ft 334 kts 251°
2026-05-07 08:27 49.94358 19.06033 18438 ft 336 kts 251°
2026-05-07 08:27 49.93687 19.02589 18933 ft 338 kts 251°
2026-05-07 08:27 49.92999 18.99068 19417 ft 340 kts 250°
2026-05-07 08:28 49.92310 18.95543 19911 ft 342 kts 250°
2026-05-07 08:28 49.91616 18.91997 20424 ft 343 kts 250°
2026-05-07 08:28 49.90919 18.88445 20895 ft 344 kts 250°
2026-05-07 08:28 49.90217 18.84875 21359 ft 346 kts 250°
2026-05-07 08:29 49.89520 18.81337 21785 ft 348 kts 250°
2026-05-07 08:29 49.88806 18.77718 22212 ft 350 kts 249°
2026-05-07 08:29 49.88089 18.74091 22630 ft 352 kts 249°
2026-05-07 08:29 49.87365 18.70436 23032 ft 354 kts 249°
2026-05-07 08:30 49.86649 18.66826 23414 ft 356 kts 249°
2026-05-07 08:30 49.85919 18.63152 23752 ft 357 kts 249°
2026-05-07 08:30 49.85182 18.59456 24051 ft 359 kts 249°
2026-05-07 08:30 49.84301 18.55838 24326 ft 358 kts 240°
2026-05-07 08:31 49.83221 18.52393 24594 ft 360 kts 242°
2026-05-07 08:31 49.82157 18.48857 24875 ft 362 kts 242°
2026-05-07 08:31 49.81097 18.45290 25155 ft 364 kts 242°
2026-05-07 08:31 49.80040 18.41714 25421 ft 366 kts 242°
2026-05-07 08:32 49.78983 18.38126 25706 ft 367 kts 242°
2026-05-07 08:32 49.77921 18.34523 26019 ft 368 kts 241°
2026-05-07 08:32 49.76857 18.30914 26300 ft 369 kts 241°
2026-05-07 08:32 49.75804 18.27347 26558 ft 370 kts 241°
2026-05-07 08:33 49.74727 18.23704 26803 ft 372 kts 241°
2026-05-07 08:33 49.73649 18.20063 27060 ft 374 kts 241°
2026-05-07 08:33 49.72561 18.16397 27302 ft 375 kts 241°
2026-05-07 08:33 49.71469 18.12718 27536 ft 377 kts 241°
2026-05-07 08:34 49.70380 18.09058 27761 ft 378 kts 241°
2026-05-07 08:34 49.69277 18.05356 27962 ft 379 kts 241°
2026-05-07 08:34 49.68166 18.01634 28173 ft 381 kts 241°
2026-05-07 08:34 49.67053 17.97910 28368 ft 382 kts 241°
2026-05-07 08:35 49.65944 17.94204 28565 ft 383 kts 241°
2026-05-07 08:35 49.64819 17.90450 28746 ft 385 kts 241°
2026-05-07 08:35 49.63704 17.86737 28940 ft 386 kts 241°
2026-05-07 08:35 49.62573 17.82977 29160 ft 386 kts 241°
2026-05-07 08:36 49.61441 17.79215 29420 ft 385 kts 241°
2026-05-07 08:36 49.60308 17.75462 29690 ft 385 kts 241°
2026-05-07 08:36 49.59179 17.71724 29977 ft 384 kts 240°
2026-05-07 08:36 49.58048 17.67984 30206 ft 384 kts 240°
2026-05-07 08:37 49.56933 17.64305 30509 ft 383 kts 240°
2026-05-07 08:37 49.55807 17.60593 30817 ft 381 kts 240°
2026-05-07 08:37 49.54681 17.56887 31147 ft 380 kts 240°
2026-05-07 08:37 49.53562 17.53213 31490 ft 378 kts 241°
2026-05-07 08:38 49.52443 17.49537 31828 ft 378 kts 240°
2026-05-07 08:38 49.51326 17.45875 31941 ft 378 kts 240°
2026-05-07 08:38 49.49778 17.38225 31940 ft 386 kts 260°
2026-05-07 08:39 49.49261 17.29988 31927 ft 386 kts 258°
2026-05-07 08:39 49.48770 17.21795 31959 ft 385 kts 258°
2026-05-07 08:40 49.48295 17.13614 31934 ft 384 kts 258°
2026-05-07 08:40 49.47824 17.05510 31920 ft 368 kts 258°
2026-05-07 08:41 49.47595 17.01629 31662 ft 360 kts 258°
2026-05-07 08:41 49.47368 16.97794 31209 ft 358 kts 258°
2026-05-07 08:41 49.47143 16.93999 30744 ft 356 kts 258°
2026-05-07 08:41 49.46920 16.90258 30323 ft 354 kts 258°
2026-05-07 08:42 49.46693 16.86495 29908 ft 351 kts 258°
2026-05-07 08:42 49.46467 16.82769 29445 ft 348 kts 258°
2026-05-07 08:42 49.46243 16.79080 29035 ft 345 kts 258°
2026-05-07 08:42 49.46020 16.75434 28703 ft 341 kts 257°
2026-05-07 08:43 49.45798 16.71816 28287 ft 338 kts 257°
2026-05-07 08:43 49.45577 16.68240 27907 ft 334 kts 257°
2026-05-07 08:43 49.45358 16.64703 27536 ft 331 kts 257°
2026-05-07 08:43 49.45142 16.61239 27174 ft 328 kts 257°
2026-05-07 08:44 49.44924 16.57763 26832 ft 324 kts 257°
2026-05-07 08:44 49.44707 16.54325 26475 ft 321 kts 257°
2026-05-07 08:44 49.44493 16.50938 26147 ft 317 kts 257°
2026-05-07 08:44 49.44280 16.47579 25811 ft 314 kts 257°
2026-05-07 08:45 49.44067 16.44255 25485 ft 311 kts 257°
2026-05-07 08:45 49.43856 16.40953 25152 ft 308 kts 257°
2026-05-07 08:45 49.43645 16.37685 24839 ft 306 kts 257°
2026-05-07 08:45 49.43438 16.34484 24517 ft 304 kts 257°
2026-05-07 08:46 49.43229 16.31262 24195 ft 300 kts 257°
2026-05-07 08:46 49.43021 16.28083 23897 ft 297 kts 257°
2026-05-07 08:46 49.42815 16.24932 23618 ft 295 kts 257°
2026-05-07 08:46 49.42608 16.21799 23242 ft 293 kts 257°
2026-05-07 08:47 49.42403 16.18699 22889 ft 290 kts 257°
2026-05-07 08:47 49.42200 16.15651 22624 ft 295 kts 257°
2026-05-07 08:47 49.41984 16.12427 22433 ft 312 kts 257°
2026-05-07 08:47 49.41757 16.09031 22109 ft 328 kts 258°
2026-05-07 08:48 49.41519 16.05464 21692 ft 340 kts 258°
2026-05-07 08:48 49.41274 16.01820 21270 ft 344 kts 258°
2026-05-07 08:48 49.41034 15.98187 20845 ft 347 kts 260°
2026-05-07 08:48 49.41226 15.94443 20357 ft 358 kts 278°
2026-05-07 08:49 49.42192 15.90885 20003 ft 363 kts 290°
2026-05-07 08:49 49.42946 15.88599 19744 ft 361 kts 290°
2026-05-07 08:49 49.44084 15.85172 19354 ft 358 kts 290°
2026-05-07 08:49 49.45224 15.81780 18977 ft 357 kts 291°
2026-05-07 08:50 49.46370 15.78394 18563 ft 356 kts 292°
2026-05-07 08:50 49.47514 15.75022 18148 ft 354 kts 292°
2026-05-07 08:50 49.48654 15.71660 17699 ft 352 kts 292°
2026-05-07 08:50 49.49785 15.68327 17285 ft 350 kts 292°
2026-05-07 08:51 49.50905 15.65018 16884 ft 347 kts 292°
2026-05-07 08:51 49.52002 15.61774 16498 ft 344 kts 292°
2026-05-07 08:51 49.53102 15.58519 16112 ft 342 kts 292°
2026-05-07 08:51 49.54194 15.55281 15726 ft 339 kts 292°
2026-05-07 08:52 49.55278 15.52064 15343 ft 337 kts 292°
2026-05-07 08:52 49.56355 15.48865 14964 ft 334 kts 292°
2026-05-07 08:52 49.57422 15.45691 14590 ft 332 kts 292°
2026-05-07 08:52 49.58480 15.42537 14228 ft 330 kts 293°
2026-05-07 08:53 49.59533 15.39398 13847 ft 329 kts 293°
2026-05-07 08:53 49.60582 15.36265 13427 ft 327 kts 293°
2026-05-07 08:53 49.61610 15.33191 13030 ft 325 kts 294°
2026-05-07 08:53 49.62644 15.30097 12656 ft 322 kts 294°
2026-05-07 08:54 49.63664 15.27040 12304 ft 319 kts 293°
2026-05-07 08:54 49.64679 15.23993 11926 ft 317 kts 293°
2026-05-07 08:54 49.65686 15.20969 11562 ft 315 kts 294°
2026-05-07 08:54 49.66683 15.17971 11202 ft 312 kts 293°
2026-05-07 08:55 49.67657 15.15035 10847 ft 311 kts 293°
2026-05-07 08:55 49.68635 15.12090 10644 ft 303 kts 294°
2026-05-07 08:55 49.69580 15.09239 10514 ft 293 kts 293°
2026-05-07 08:55 49.70522 15.06495 10373 ft 285 kts 299°
2026-05-07 08:56 49.71710 15.04062 10236 ft 279 kts 304°
2026-05-07 08:56 49.72887 15.01747 10092 ft 270 kts 303°
2026-05-07 08:56 49.74027 14.99490 9961 ft 262 kts 303°
2026-05-07 08:56 49.75140 14.97274 9692 ft 260 kts 303°
2026-05-07 08:57 49.76229 14.95102 9365 ft 259 kts 303°
2026-05-07 08:57 49.77333 14.92897 9072 ft 257 kts 303°
2026-05-07 08:57 49.78424 14.90714 8781 ft 256 kts 303°
2026-05-07 08:57 49.79507 14.88544 8505 ft 253 kts 303°
2026-05-07 08:58 49.80574 14.86387 8215 ft 252 kts 303°
2026-05-07 08:58 49.81635 14.84237 7924 ft 250 kts 303°
2026-05-07 08:58 49.82689 14.82102 7659 ft 248 kts 303°
2026-05-07 08:58 49.83719 14.80014 7394 ft 246 kts 303°
2026-05-07 08:59 49.84769 14.77881 7135 ft 251 kts 303°
2026-05-07 08:59 49.85839 14.75710 6863 ft 254 kts 304°
2026-05-07 08:59 49.86913 14.73528 6550 ft 255 kts 304°
2026-05-07 08:59 49.87990 14.71341 6266 ft 254 kts 304°
2026-05-07 09:00 49.89065 14.69172 5964 ft 252 kts 304°
2026-05-07 09:00 49.90117 14.67039 5681 ft 251 kts 304°
2026-05-07 09:00 49.91160 14.64919 5542 ft 243 kts 304°
2026-05-07 09:00 49.92166 14.62865 5428 ft 234 kts 304°
2026-05-07 09:01 49.93130 14.60896 5321 ft 224 kts 304°
2026-05-07 09:01 49.94056 14.59004 5212 ft 216 kts 303°
2026-05-07 09:01 49.94946 14.57177 5096 ft 207 kts 303°
2026-05-07 09:01 49.95805 14.55418 4961 ft 202 kts 303°
2026-05-07 09:02 49.96661 14.53656 4869 ft 206 kts 303°
2026-05-07 09:02 49.97521 14.51894 4731 ft 207 kts 303°
2026-05-07 09:02 49.98393 14.50105 4567 ft 208 kts 304°
2026-05-07 09:02 49.99274 14.48293 4311 ft 212 kts 303°
2026-05-07 09:03 50.00166 14.46461 4028 ft 212 kts 304°
2026-05-07 09:03 50.01040 14.44662 3942 ft 206 kts 303°
2026-05-07 09:03 50.01905 14.42884 3946 ft 206 kts 304°
2026-05-07 09:03 50.02793 14.41116 3765 ft 208 kts 303°
2026-05-07 09:04 50.03639 14.39336 3447 ft 206 kts 302°
2026-05-07 09:04 50.04492 14.37562 3063 ft 201 kts 302°
2026-05-07 09:04 50.05311 14.35874 2724 ft 185 kts 301°
2026-05-07 09:04 50.06032 14.34394 2466 ft 159 kts 301°
2026-05-07 09:05 50.06652 14.33116 2226 ft 137 kts 300°
2026-05-07 09:05 50.07205 14.31961 2013 ft 133 kts 300°
2026-05-07 09:05 50.07773 14.30807 1800 ft 139 kts 302°
2026-05-07 09:05 50.08352 14.29606 1517 ft 140 kts 300°
2026-05-07 09:06 50.08942 14.28403 1303 ft 136 kts 298°
2026-05-07 09:06 50.09475 14.27277 1218 ft 114 kts 302°
2026-05-07 09:06 50.09825 14.26556 1216 ft 59 kts 307°
2026-05-07 09:06 50.10021 14.26147 1201 ft 46 kts 307°
2026-05-07 09:07 50.10214 14.25764 1190 ft 36 kts 316°
2026-05-07 09:07 50.10363 14.25656 1188 ft 16 kts 352°
2026-05-07 09:07 50.10481 14.25676 1188 ft 18 kts 16°
2026-05-07 09:07 50.10563 14.25745 1186 ft 10 kts 34°
2026-05-07 09:08 50.10633 14.25818 1182 ft 15 kts 34°
2026-05-07 09:08 50.10722 14.25914 1176 ft 16 kts 34°
2026-05-07 09:08 50.10798 14.25990 1178 ft 5 kts
2026-05-07 09:08 50.10822 14.25959 1176 ft 6 kts 303°
2026-05-07 09:09 50.10841 14.25915 1174 ft 1 kts 304°
2026-05-07 09:09 50.10841 14.25914 1174 ft 0 kts 304°